Targu Mures, Romania

11:09 AM EEST on August 24, 2019 (GMT +0300)
Vidrasau

Weather History for LRTM - July, 2019

Change the Weather History Date:

Friday, July 19, 2019

  Actual Average Record
Temperature  
Mean Temperature 68 °F -  
Max Temperature 80 °F 77 °F 96 °F (2007)
Min Temperature 56 °F 56 °F 50 °F (2006)
Cooling Degree Days 3    
Growing Degree Days 18 (Base 50)    
Moisture  
Dew Point 58 °F    
Average Humidity 70    
Maximum Humidity 94    
Minimum Humidity 29    
Precipitation  
Precipitation 0.00 in - - ()
Sea Level Pressure  
Sea Level Pressure 30.03 in    
Wind  
Wind Speed 3 mph ()    
Max Wind Speed 12 mph    
Max Gust Speed -    
Visibility 7.1 miles    
Events Rain    
Averages and records for this station are not official NWS values.
T = Trace of Precipitation, MM = Missing Value Source: Averaged Metar Reports

Daily Weather History Graph

Daily Weather History Graph

Search for Another Location

Airport or City:

Astronomy

Jul. 19, 2019 Rise Set
Actual Time 5:47 AM EEST 9:08 PM EEST
Civil Twilight 5:10 AM EEST 9:45 PM EEST
Nautical Twilight 4:21 AM EEST 10:33 PM EEST
Astronomical Twilight 3:19 AM EEST 11:35 PM EEST
Moon 10:49 PM EEST (7/19) 8:00 AM EEST (7/19)
Length of Visible Light 16h 34m
Length of Day
15h 20m
Waning Gibbous, 94% of the Moon is Illuminated
Jul 19
Waning Gibbous
Jul 25
Last Quarter
Aug 1
New
Aug 7
First Quarter
Aug 15
Full

Hourly Weather History & Observations

Time (EEST) Temp. Heat Index Dew Point Humidity Pressure Visibility Wind Dir Wind Speed Gust Speed Precip Events Conditions
12:00 AM 65 °F - 59 °F 74% 29.99 in 6 mi SW 2.2 mph - -   Partly Cloudy
12:00 AM 62.6 °F - 59.0 °F 88% 29.98 in 6.2 mi SW 4.6 mph - N/A Rain Light Rain Showers
12:30 AM 62.6 °F - 59.0 °F 88% 29.98 in 6.2 mi SSW 4.6 mph - N/A   Mostly Cloudy
1:00 AM 64 °F - 59 °F 80% 30.01 in 6 mi NW 2.2 mph - -   Partly Cloudy
1:00 AM 62.6 °F - 59.0 °F 88% 29.98 in 6.2 mi West 3.5 mph - N/A   Partly Cloudy
1:30 AM 62.6 °F - 59.0 °F 88% 30.01 in 6.2 mi SW 2.3 mph - N/A   Mostly Cloudy
2:00 AM 63 °F - 59 °F 84% 30.01 in 6 mi North 2.2 mph - -   Partly Cloudy
2:00 AM 60.8 °F - 59.0 °F 94% 30.01 in 6.2 mi Variable 1.2 mph - N/A   Scattered Clouds
2:30 AM 60.8 °F - 59.0 °F 94% 30.01 in 6.2 mi West 2.3 mph - N/A   Overcast
3:00 AM 63 °F - 59 °F 83% 30.03 in 6 mi West 2.2 mph - -   Partly Cloudy
3:00 AM 60.8 °F - 59.0 °F 94% 30.01 in 6.2 mi WSW 2.3 mph - N/A   Overcast
3:30 AM 60.8 °F - 59.0 °F 94% 30.01 in 6.2 mi Calm Calm - N/A   Overcast
4:00 AM 63 °F - 58 °F 80% 30.04 in 6 mi ENE 4.5 mph - -   Partly Cloudy
4:00 AM 60.8 °F - 59.0 °F 94% 30.01 in 6.2 mi East 2.3 mph - N/A   Overcast
4:30 AM 59.0 °F - 57.2 °F 94% 30.01 in 6.2 mi ENE 4.6 mph - N/A   Scattered Clouds
5:00 AM 57.2 °F - 55.4 °F 94% 30.01 in 6.2 mi ENE 8.1 mph - N/A   Unknown
5:30 AM 57.2 °F - 55.4 °F 94% 30.04 in 6.2 mi East 4.6 mph - N/A   Unknown
6:00 AM 57.2 °F - 55.4 °F 94% 30.04 in 6.2 mi East 3.5 mph - N/A   Unknown
6:30 AM 57.2 °F - 55.4 °F 94% 30.04 in 6.2 mi ESE 2.3 mph - N/A   Unknown
7:00 AM 58 °F - 56 °F 92% 30.06 in 12 mi ENE 2.2 mph - -   Scattered Clouds
7:00 AM 59.0 °F - 57.2 °F 94% 30.04 in 6.2 mi Calm Calm - N/A   Unknown
7:30 AM 60.8 °F - 57.2 °F 88% 30.04 in 6.2 mi WSW 3.5 mph - N/A   Unknown
8:00 AM 62 °F - 57 °F 80% 30.06 in 12 mi NE 4.5 mph - -   Scattered Clouds
8:00 AM 62.6 °F - 59.0 °F 88% 30.04 in 6.2 mi SW 4.6 mph - N/A   Partly Cloudy
8:30 AM 64.4 °F - 57.2 °F 77% 30.04 in 6.2 mi SW 3.5 mph - N/A   Partly Cloudy
9:00 AM 65 °F - 58 °F 71% 30.06 in 12 mi Calm Calm - -  
9:00 AM 66.2 °F - 59.0 °F 78% 30.04 in - SW 3.5 mph - N/A   Clear
9:30 AM 68.0 °F - 57.2 °F 68% 30.04 in - South 3.5 mph - N/A   Clear
10:00 AM 68 °F - 58 °F 62% 30.06 in 12 mi Calm Calm - -   Scattered Clouds
10:00 AM 69.8 °F - 60.8 °F 73% 30.06 in - Variable 4.6 mph - N/A   Clear
10:30 AM 71.6 °F - 60.8 °F 69% 30.04 in 6.2 mi Variable 3.5 mph - N/A   Partly Cloudy
11:00 AM 71 °F - 57 °F 53% 30.05 in 12 mi South 2.2 mph - -   Scattered Clouds
11:00 AM 71.6 °F - 62.6 °F 73% 30.04 in 6.2 mi Variable 1.2 mph - N/A   Partly Cloudy
12:00 PM 74 °F - 58 °F 47% 30.05 in 12 mi SW 2.2 mph - -   Scattered Clouds
12:30 PM 77.0 °F - 55.4 °F 47% 30.04 in 6.2 mi WNW 3.5 mph - N/A   Scattered Clouds
1:00 PM 77.0 °F - 59.0 °F 54% 30.04 in 6.2 mi Variable 3.5 mph - N/A   Scattered Clouds
1:30 PM 77.0 °F - 57.2 °F 50% 30.04 in 6.2 mi SW 4.6 mph - N/A   Scattered Clouds
2:00 PM 78.8 °F - 57.2 °F 47% 30.04 in 6.2 mi SSW 4.6 mph - N/A   Scattered Clouds
2:30 PM 78.8 °F - 57.2 °F 47% 30.04 in 6.2 mi West 4.6 mph - N/A   Scattered Clouds
3:00 PM 79 °F - 55 °F 33% 30.02 in 12 mi NW 2.2 mph - -   Partly Cloudy
3:00 PM 78.8 °F - 55.4 °F 44% 30.04 in 6.2 mi NW 6.9 mph - N/A   Partly Cloudy
3:30 PM 80.6 °F 81.1 °F 59.0 °F 48% 30.04 in 6.2 mi West 5.8 mph - N/A   Partly Cloudy
4:00 PM 80.6 °F 80.5 °F 55.4 °F 42% 30.04 in 6.2 mi Variable 2.3 mph - N/A   Partly Cloudy
4:30 PM 77.0 °F - 57.2 °F 50% 30.04 in 6.2 mi SW 5.8 mph - N/A   Scattered Clouds
5:00 PM 80 °F - 53 °F 29% 30.01 in 12 mi NW 4.5 mph - -   Partly Cloudy
5:00 PM 77.0 °F - 59.0 °F 54% 30.04 in 6.2 mi SW 6.9 mph - N/A   Scattered Clouds
5:30 PM 77.0 °F - 59.0 °F 54% 30.01 in 6.2 mi SW 5.8 mph - N/A   Scattered Clouds
6:00 PM 78.8 °F - 55.4 °F 44% 30.01 in 6.2 mi SSW 5.8 mph - N/A   Scattered Clouds
6:30 PM 78.8 °F - 57.2 °F 47% 30.01 in 6.2 mi SSW 6.9 mph - N/A   Partly Cloudy
7:00 PM 78.8 °F - 59.0 °F 51% 30.01 in 6.2 mi SSW 8.1 mph - N/A   Partly Cloudy
7:30 PM 75.2 °F - 57.2 °F 53% 30.01 in 6.2 mi SSW 11.5 mph - N/A   Partly Cloudy
8:00 PM 79 °F - 55 °F 33% 30.01 in 12 mi WSW 4.5 mph - -   Partly Cloudy
8:00 PM 73.4 °F - 57.2 °F 57% 30.04 in 6.2 mi SSW 6.9 mph - N/A   Partly Cloudy
8:30 PM 71.6 °F - 57.2 °F 60% 30.04 in 6.2 mi WSW 6.9 mph - N/A   Unknown
9:00 PM 66.2 °F - 57.2 °F 73% 30.04 in 6.2 mi SW 4.6 mph - N/A   Unknown
9:30 PM 64.4 °F - 57.2 °F 77% 30.04 in 6.2 mi SSW 3.5 mph - N/A   Unknown
10:00 PM 64.4 °F - 55.4 °F 73% 30.06 in 6.2 mi West 2.3 mph - N/A   Unknown
10:30 PM 62.6 °F - 55.4 °F 77% 30.06 in 6.2 mi Variable 1.2 mph - N/A   Unknown
11:00 PM 64 °F - 58 °F 75% 30.08 in 6 mi Calm Calm - -   Scattered Clouds
11:00 PM 60.8 °F - 55.4 °F 82% 30.06 in 6.2 mi Calm Calm - N/A   Unknown
11:30 PM 60.8 °F - 55.4 °F 82% 30.06 in 6.2 mi North 1.2 mph - N/A   Unknown